Location: Newark
(45.4422°N, 16.2769°E)
Time: 06:46:45
(UTC+00:00)

Courier 1B - Pass Details

Date: 12 December 2019
Orbit: 962 x 1209 km, 28.3° (Epoch: 20 January)

Event Time Altitude Azimuth Distance (km) Brightness Sun altitude
Rises 21:57:12 0° 245° (WSW) 3,968 - -65.3°
Reaches altitude 10° 22:00:46 10° 230° (SW) 3,048 - -65.6°
Maximum altitude 22:05:58 20° 186° (S) 2,418 - -66.0°
Drops below altitude 10° 22:11:17 10° 143° (SE) 3,127 - -66.4°
Sets 22:15:00 0° 127° (SE) 4,102 - -66.6°
